SL-14 DEB, 45267

Orbit data source: Space-Track

SL-14 DEB, 45267 is space debris in LEO originally from a launch on Thu, 15 Aug 1991 UTC launched from the Plesetsk Missile And Space Complex (PKMTR). Debris objects in space refer to the collection of defunct objects orbiting the Earth. Examples of debris include non-operational satellites, rocket bodies, and fragments generated from explosions, collisions, or faulty payload assembly.

Loading next visibility...
Identifier
45267, 1991-056D
Orbit
LEO
Country
Flag of CISCIS
Related business
Manufacturer
Unknown
Mission
Spacecraft
Bus & Motor
Unknown
Mass
Unknown
Launch date (UTC)
1991-08-15 (35 years ago)
Launch vehicle
Unknown
Launch site
Plesetsk Missile And Space Complex (PKMTR)
Object type
Payload
Rocket body
Debris
Shape & HBR
Unknown shape, 0.4 m
Radar Cross Section
Medium (>0.1 m² and <1 m²)

Expand to show TLE details & history
Last TLE update: 23 hours ago

TLE from 23 hours ago
0 SL-14 DEB
1 45267U 91056D   26207.46424413  .00000151  00000-0  37698-3 0  9993
2 45267  82.5686 122.7572 0015370 164.5934 195.5658 13.14139321309385
Epoch: 2026-07-26T11:08Z
TLE epoch observation values (Epoch: 2026-07-26T11:08:30.692Z)
Latitude
-0.00002°
Longitude
11.46752°
Altitude
1,221.227 km
Speed
7.238 km/s
True Right ascension
08h 11m 01s
True Declination
0° 00' 00"
Sunlit
Object was in daylight at epoch
Visualization orbit readout
Latitude
Unknown
Longitude
Unknown
Altitude
Unknown
Speed
Unknown
Apparent Right ascension
Unknown
Apparent Declination
Unknown
Sunlit
N/A
Visualization observer readout
Local Sidereal Time
23:13:17
Azimuth
Unknown
Elevation
Unknown
Doppler factor
Unknown
Orbital elements
Apogee altitude
1,216.091 km
Perigee altitude
1,192.782 km
Semi-major axis
7,582.574 km
Eccentricity
0.00154
Inclination
82.5686°
RAAN
122.7572°
Arg. of periapsis
164.5934°
True anomaly
195.51862°
Mean anomaly
195.5658°
Eccentric anomaly
195.5422°
Mean motion
3.28714 °/min
Orbital period
109.52 mins
BSTAR
0.00037698
Loading maneuver chart data...
Computing Atmospheric mass density...
Loading historical data...
Loading historical data...
Loading historical data...
Loading historical data...
Loading historical data...
Loading historical data...
Loading historical data...

Documentation

Showing up to 5 results
|